Time,TemperatureF,DewpointF,PressureIn,WindDirection,WindDirectionDegrees,WindSpeedMPH,WindSpeedGustMPH,Humidity,HourlyPrecipIn,Conditions,Clouds,dailyrainin,SoftwareType,DateUTC
2013-06-26 00:01:00,80.0,72.7,29.88,SSW,198,3.0,5.0,78,0.00,,,0.00,WUHU216DAVISVP2,2013-06-26 05:01:00,
2013-06-26 00:06:00,80.0,72.7,29.89,SSE,150,2.0,5.0,78,0.00,,,0.00,WUHU216DAVISVP2,2013-06-26 05:06:00,
2013-06-26 00:11:00,79.9,72.9,29.89,SSE,158,3.0,4.0,79,0.00,,,0.00,WUHU216DAVISVP2,2013-06-26 05:11:00,
2013-06-26 00:16:00,79.7,72.7,29.89,SSW,207,2.0,4.0,79,0.00,,,0.00,WUHU216DAVISVP2,2013-06-26 05:16:00,
2013-06-26 00:21:00,79.6,73.0,29.89,SSW,206,2.0,4.0,80,0.00,,,0.00,WUHU216DAVISVP2,2013-06-26 05:21:00,
2013-06-26 00:26:00,79.3,72.7,29.89,South,171,1.0,4.0,80,0.00,,,0.00,WUHU216DAVISVP2,2013-06-26 05:26:00,
2013-06-26 00:31:00,79.2,72.6,29.89,SSW,202,1.0,4.0,80,0.00,,,0.00,WUHU216DAVISVP2,2013-06-26 05:31:00,
2013-06-26 00:36:00,79.1,72.5,29.89,South,188,2.0,4.0,80,0.00,,,0.00,WUHU216DAVISVP2,2013-06-26 05:36:00,
2013-06-26 00:41:00,79.0,72.3,29.89,South,182,2.0,4.0,80,0.00,,,0.00,WUHU216DAVISVP2,2013-06-26 05:41:00,
2013-06-26 00:46:00,79.1,72.5,29.89,SSE,160,2.0,6.0,80,0.00,,,0.00,WUHU216DAVISVP2,2013-06-26 05:46:00,
2013-06-26 00:51:00,78.9,72.7,29.88,South,176,4.0,6.0,81,0.00,,,0.00,WUHU216DAVISVP2,2013-06-26 05:51:00,
2013-06-26 00:56:00,78.9,72.7,29.88,SSW,201,4.0,6.0,81,0.00,,,0.00,WUHU216DAVISVP2,2013-06-26 05:56:00,
2013-06-26 01:01:00,78.8,72.6,29.88,SSW,205,2.0,5.0,81,0.00,,,0.00,WUHU216DAVISVP2,2013-06-26 06:01:00,
2013-06-26 01:06:00,78.8,72.6,29.88,South,185,1.0,5.0,81,0.00,,,0.00,WUHU216DAVISVP2,2013-06-26 06:06:00,
2013-06-26 01:11:00,78.6,72.4,29.88,SSE,147,0.0,5.0,81,0.00,,,0.00,WUHU216DAVISVP2,2013-06-26 06:11:00,
2013-06-26 01:16:00,78.5,72.3,29.88,SSE,147,1.0,5.0,81,0.00,,,0.00,WUHU216DAVISVP2,2013-06-26 06:16:00,
2013-06-26 01:21:00,78.4,72.2,29.88,SW,225,1.0,5.0,81,0.00,,,0.00,WUHU216DAVISVP2,2013-06-26 06:21:00,
2013-06-26 01:26:00,78.3,72.4,29.88,SW,228,2.0,4.0,82,0.00,,,0.00,WUHU216DAVISVP2,2013-06-26 06:26:00,
2013-06-26 01:31:00,78.2,72.3,29.88,SSW,209,1.0,3.0,82,0.00,,,0.00,WUHU216DAVISVP2,2013-06-26 06:31:00,
2013-06-26 01:36:00,78.1,72.2,29.88,South,181,2.0,3.0,82,0.00,,,0.00,WUHU216DAVISVP2,2013-06-26 06:36:00,
2013-06-26 01:41:00,78.0,72.1,29.88,SSW,202,1.0,4.0,82,0.00,,,0.00,WUHU216DAVISVP2,2013-06-26 06:41:00,
2013-06-26 01:46:00,77.9,72.0,29.88,SSW,194,1.0,4.0,82,0.00,,,0.00,WUHU216DAVISVP2,2013-06-26 06:46:00,
2013-06-26 01:51:00,77.8,71.9,29.87,SW,227,1.0,4.0,82,0.00,,,0.00,WUHU216DAVISVP2,2013-06-26 06:51:00,
2013-06-26 01:56:00,77.8,71.9,29.87,SSW,200,3.0,5.0,82,0.00,,,0.00,WUHU216DAVISVP2,2013-06-26 06:56:00,
2013-06-26 02:01:00,77.9,72.0,29.87,SW,217,3.0,5.0,82,0.00,,,0.00,WUHU216DAVISVP2,2013-06-26 07:01:00,
2013-06-26 02:06:00,77.9,72.0,29.87,South,172,2.0,6.0,82,0.00,,,0.00,WUHU216DAVISVP2,2013-06-26 07:06:00,
2013-06-26 02:11:00,77.9,72.0,29.86,SSW,210,2.0,6.0,82,0.00,,,0.00,WUHU216DAVISVP2,2013-06-26 07:11:00,
2013-06-26 02:16:00,77.9,72.0,29.86,South,186,2.0,6.0,82,0.00,,,0.00,WUHU216DAVISVP2,2013-06-26 07:16:00,
2013-06-26 02:21:00,77.8,71.9,29.86,SSW,193,3.0,6.0,82,0.00,,,0.00,WUHU216DAVISVP2,2013-06-26 07:21:00,
2013-06-26 02:26:00,77.7,71.8,29.86,SSW,210,4.0,6.0,82,0.00,,,0.00,WUHU216DAVISVP2,2013-06-26 07:26:00,
2013-06-26 02:31:00,77.6,71.7,29.85,SSW,211,2.0,7.0,82,0.00,,,0.00,WUHU216DAVISVP2,2013-06-26 07:31:00,
2013-06-26 02:36:00,77.6,71.7,29.85,SSW,198,3.0,7.0,82,0.00,,,0.00,WUHU216DAVISVP2,2013-06-26 07:36:00,
2013-06-26 02:41:00,77.5,71.7,29.85,SSW,195,2.0,6.0,82,0.00,,,0.00,WUHU216DAVISVP2,2013-06-26 07:41:00,
2013-06-26 02:46:00,77.6,71.7,29.85,South,169,2.0,9.0,82,0.00,,,0.00,WUHU216DAVISVP2,2013-06-26 07:46:00,
2013-06-26 02:51:00,77.7,71.8,29.85,SSW,198,7.0,9.0,82,0.00,,,0.00,WUHU216DAVISVP2,2013-06-26 07:51:00,
2013-06-26 02:56:00,77.7,71.8,29.85,South,190,3.0,8.0,82,0.00,,,0.00,WUHU216DAVISVP2,2013-06-26 07:56:00,
2013-06-26 03:01:00,77.6,71.7,29.85,SSW,198,5.0,7.0,82,0.00,,,0.00,WUHU216DAVISVP2,2013-06-26 08:01:00,
2013-06-26 03:06:00,77.5,71.7,29.84,SSW,192,4.0,7.0,82,0.00,,,0.00,WUHU216DAVISVP2,2013-06-26 08:06:00,
2013-06-26 03:11:00,77.3,71.5,29.85,SSW,205,3.0,7.0,82,0.00,,,0.00,WUHU216DAVISVP2,2013-06-26 08:11:00,
2013-06-26 03:16:00,77.2,71.3,29.84,SSW,202,2.0,8.0,82,0.00,,,0.00,WUHU216DAVISVP2,2013-06-26 08:16:00,
2013-06-26 03:21:00,77.2,71.3,29.84,SSE,155,4.0,8.0,82,0.00,,,0.00,WUHU216DAVISVP2,2013-06-26 08:21:00,
2013-06-26 03:26:00,77.1,71.3,29.84,South,187,3.0,8.0,82,0.00,,,0.00,WUHU216DAVISVP2,2013-06-26 08:26:00,
2013-06-26 03:31:00,77.0,71.5,29.84,SSW,213,4.0,8.0,83,0.00,,,0.00,WUHU216DAVISVP2,2013-06-26 08:31:00,
2013-06-26 03:36:00,77.0,71.2,29.84,South,187,3.0,6.0,82,0.00,,,0.00,WUHU216DAVISVP2,2013-06-26 08:36:00,
2013-06-26 03:41:00,77.0,71.2,29.84,South,179,3.0,7.0,82,0.00,,,0.00,WUHU216DAVISVP2,2013-06-26 08:41:00,
2013-06-26 03:46:00,76.9,71.1,29.84,South,172,2.0,7.0,82,0.00,,,0.00,WUHU216DAVISVP2,2013-06-26 08:46:00,
2013-06-26 03:51:00,76.9,71.1,29.84,SSW,197,3.0,6.0,82,0.00,,,0.00,WUHU216DAVISVP2,2013-06-26 08:51:00,
2013-06-26 03:56:00,76.9,71.0,29.83,South,176,2.0,6.0,82,0.00,,,0.00,WUHU216DAVISVP2,2013-06-26 08:56:00,
2013-06-26 04:01:00,76.9,71.0,29.84,SW,214,6.0,6.0,82,0.00,,,0.00,WUHU216DAVISVP2,2013-06-26 09:01:00,
2013-06-26 04:06:00,76.8,71.0,29.84,SSW,203,4.0,6.0,82,0.00,,,0.00,WUHU216DAVISVP2,2013-06-26 09:06:00,
2013-06-26 04:11:00,76.8,71.0,29.83,South,176,3.0,5.0,82,0.00,,,0.00,WUHU216DAVISVP2,2013-06-26 09:11:00,
2013-06-26 04:16:00,76.8,71.0,29.84,SSW,195,3.0,7.0,82,0.00,,,0.00,WUHU216DAVISVP2,2013-06-26 09:16:00,
2013-06-26 04:21:00,76.7,70.8,29.84,SSW,206,4.0,8.0,82,0.00,,,0.00,WUHU216DAVISVP2,2013-06-26 09:21:00,
2013-06-26 04:26:00,76.7,70.8,29.84,SW,233,4.0,8.0,82,0.00,,,0.00,WUHU216DAVISVP2,2013-06-26 09:26:00,
2013-06-26 04:31:00,76.7,70.8,29.84,SSW,200,5.0,5.0,82,0.00,,,0.00,WUHU216DAVISVP2,2013-06-26 09:31:00,
2013-06-26 04:36:00,76.7,70.8,29.84,SSW,200,1.0,5.0,82,0.00,,,0.00,WUHU216DAVISVP2,2013-06-26 09:36:00,
2013-06-26 04:41:00,76.7,70.8,29.85,SSW,202,2.0,5.0,82,0.00,,,0.00,WUHU216DAVISVP2,2013-06-26 09:41:00,
2013-06-26 04:46:00,76.7,70.8,29.85,SSW,208,2.0,5.0,82,0.00,,,0.00,WUHU216DAVISVP2,2013-06-26 09:46:00,
2013-06-26 04:51:00,76.6,70.8,29.85,South,183,2.0,5.0,82,0.00,,,0.00,WUHU216DAVISVP2,2013-06-26 09:51:00,
2013-06-26 04:56:00,76.6,70.8,29.85,South,172,2.0,5.0,82,0.00,,,0.00,WUHU216DAVISVP2,2013-06-26 09:56:00,
2013-06-26 05:01:00,76.7,70.9,29.85,SSE,156,0.0,6.0,82,0.00,,,0.00,WUHU216DAVISVP2,2013-06-26 10:01:00,
2013-06-26 05:06:00,76.6,70.8,29.84,SW,228,1.0,6.0,82,0.00,,,0.00,WUHU216DAVISVP2,2013-06-26 10:06:00,
2013-06-26 05:11:00,76.4,70.6,29.84,SE,143,0.0,4.0,82,0.00,,,0.00,WUHU216DAVISVP2,2013-06-26 10:11:00,
2013-06-26 05:16:00,76.1,70.6,29.84,SSW,210,0.0,4.0,83,0.00,,,0.00,WUHU216DAVISVP2,2013-06-26 10:16:00,
2013-06-26 05:21:00,75.8,70.7,29.85,SW,222,3.0,3.0,84,0.00,,,0.00,WUHU216DAVISVP2,2013-06-26 10:21:00,
2013-06-26 05:26:00,75.6,70.5,29.84,WSW,256,0.0,3.0,84,0.00,,,0.00,WUHU216DAVISVP2,2013-06-26 10:26:00,
2013-06-26 05:31:00,75.4,70.6,29.85,SSW,212,0.0,3.0,85,0.00,,,0.00,WUHU216DAVISVP2,2013-06-26 10:31:00,
2013-06-26 05:36:00,75.2,70.4,29.85,South,181,0.0,4.0,85,0.00,,,0.00,WUHU216DAVISVP2,2013-06-26 10:36:00,
2013-06-26 05:41:00,75.1,70.3,29.85,SW,223,2.0,4.0,85,0.00,,,0.00,WUHU216DAVISVP2,2013-06-26 10:41:00,
2013-06-26 05:46:00,75.0,70.2,29.85,South,181,0.0,4.0,85,0.00,,,0.00,WUHU216DAVISVP2,2013-06-26 10:46:00,
2013-06-26 05:51:00,75.0,70.2,29.85,SW,219,2.0,4.0,85,0.00,,,0.00,WUHU216DAVISVP2,2013-06-26 10:51:00,
2013-06-26 05:56:00,75.0,70.2,29.85,South,179,2.0,4.0,85,0.00,,,0.00,WUHU216DAVISVP2,2013-06-26 10:56:00,
2013-06-26 06:01:00,75.0,70.2,29.85,South,181,2.0,2.0,85,0.00,,,0.00,WUHU216DAVISVP2,2013-06-26 11:01:00,
2013-06-26 06:06:00,75.0,70.2,29.84,SSW,207,1.0,4.0,85,0.00,,,0.00,WUHU216DAVISVP2,2013-06-26 11:06:00,
2013-06-26 06:11:00,75.1,70.3,29.85,SW,219,1.0,4.0,85,0.00,,,0.00,WUHU216DAVISVP2,2013-06-26 11:11:00,
2013-06-26 06:16:00,75.2,70.4,29.85,South,172,5.0,5.0,85,0.00,,,0.00,WUHU216DAVISVP2,2013-06-26 11:16:00,
2013-06-26 06:21:00,75.4,70.6,29.85,SSW,197,4.0,5.0,85,0.00,,,0.00,WUHU216DAVISVP2,2013-06-26 11:21:00,
2013-06-26 06:26:00,75.5,70.4,29.85,South,190,3.0,7.0,84,0.00,,,0.00,WUHU216DAVISVP2,2013-06-26 11:26:00,
2013-06-26 06:31:00,75.7,70.6,29.85,SSE,158,4.0,7.0,84,0.00,,,0.00,WUHU216DAVISVP2,2013-06-26 11:31:00,
2013-06-26 06:36:00,75.9,70.8,29.85,SW,214,5.0,5.0,84,0.00,,,0.00,WUHU216DAVISVP2,2013-06-26 11:36:00,
2013-06-26 06:41:00,76.0,70.5,29.85,South,171,3.0,6.0,83,0.00,,,0.00,WUHU216DAVISVP2,2013-06-26 11:41:00,
2013-06-26 06:46:00,76.1,70.6,29.85,SSW,195,3.0,7.0,83,0.00,,,0.00,WUHU216DAVISVP2,2013-06-26 11:46:00,
2013-06-26 06:51:00,76.2,70.7,29.85,SW,219,4.0,7.0,83,0.00,,,0.00,WUHU216DAVISVP2,2013-06-26 11:51:00,
2013-06-26 06:56:00,76.3,70.8,29.86,SSW,197,3.0,7.0,83,0.00,,,0.00,WUHU216DAVISVP2,2013-06-26 11:56:00,
2013-06-26 07:01:00,76.3,70.8,29.86,South,191,1.0,5.0,83,0.00,,,0.00,WUHU216DAVISVP2,2013-06-26 12:01:00,
2013-06-26 07:06:00,76.3,70.8,29.86,SSW,207,1.0,5.0,83,0.00,,,0.00,WUHU216DAVISVP2,2013-06-26 12:06:00,
2013-06-26 07:11:00,76.2,70.7,29.85,West,266,0.0,4.0,83,0.00,,,0.00,WUHU216DAVISVP2,2013-06-26 12:11:00,
2013-06-26 07:16:00,76.1,70.6,29.86,SSW,207,1.0,4.0,83,0.00,,,0.00,WUHU216DAVISVP2,2013-06-26 12:16:00,
2013-06-26 07:21:00,76.0,70.5,29.86,SSE,150,0.0,3.0,83,0.00,,,0.00,WUHU216DAVISVP2,2013-06-26 12:21:00,
2013-06-26 07:26:00,75.9,70.4,29.87,SSW,208,1.0,3.0,83,0.00,,,0.00,WUHU216DAVISVP2,2013-06-26 12:26:00,
2013-06-26 07:31:00,75.9,70.8,29.86,East,98,0.0,3.0,84,0.00,,,0.00,WUHU216DAVISVP2,2013-06-26 12:31:00,
2013-06-26 07:36:00,75.8,70.7,29.87,NNW,342,0.0,2.0,84,0.00,,,0.00,WUHU216DAVISVP2,2013-06-26 12:36:00,
2013-06-26 07:41:00,75.8,70.7,29.87,West,269,1.0,3.0,84,0.00,,,0.00,WUHU216DAVISVP2,2013-06-26 12:41:00,
2013-06-26 07:46:00,75.8,70.7,29.86,SSW,212,0.0,4.0,84,0.00,,,0.00,WUHU216DAVISVP2,2013-06-26 12:46:00,
2013-06-26 07:51:00,75.7,70.6,29.86,SSE,167,2.0,4.0,84,0.00,,,0.00,WUHU216DAVISVP2,2013-06-26 12:51:00,
2013-06-26 07:56:00,75.6,70.8,29.87,SSW,199,3.0,5.0,85,0.00,,,0.00,WUHU216DAVISVP2,2013-06-26 12:56:00,
2013-06-26 08:00:00,75.4,70.6,29.89,SW,218,1.0,5.0,85,0.00,,,0.01,WUHU216DAVISVP2,2013-06-26 13:00:00,
2013-06-26 08:05:00,75.3,71.2,29.88,NE,39,1.0,3.0,87,0.03,,,0.03,WUHU216DAVISVP2,2013-06-26 13:05:00,
2013-06-26 08:10:00,74.7,71.2,29.88,NE,41,0.0,2.0,89,0.05,,,0.05,WUHU216DAVISVP2,2013-06-26 13:10:00,
2013-06-26 08:15:00,74.6,70.5,29.89,SE,143,3.0,7.0,87,0.06,,,0.06,WUHU216DAVISVP2,2013-06-26 13:15:00,
2013-06-26 08:20:00,74.9,70.8,29.89,SW,217,2.0,7.0,87,0.06,,,0.06,WUHU216DAVISVP2,2013-06-26 13:20:00,
2013-06-26 08:25:00,74.8,71.0,29.88,SSW,195,1.0,5.0,88,0.07,,,0.07,WUHU216DAVISVP2,2013-06-26 13:25:00,
2013-06-26 08:30:00,74.5,71.0,29.87,South,171,1.0,5.0,89,0.07,,,0.07,WUHU216DAVISVP2,2013-06-26 13:30:00,
2013-06-26 08:35:00,74.4,70.9,29.87,SW,222,3.0,4.0,89,0.09,,,0.09,WUHU216DAVISVP2,2013-06-26 13:35:00,
2013-06-26 08:40:00,74.1,71.0,29.86,SSW,197,3.0,6.0,90,0.11,,,0.11,WUHU216DAVISVP2,2013-06-26 13:40:00,
2013-06-26 08:45:00,73.9,71.1,29.86,South,191,3.0,6.0,91,0.14,,,0.15,WUHU216DAVISVP2,2013-06-26 13:45:00,
2013-06-26 08:50:00,73.6,71.1,29.86,SSW,207,4.0,6.0,92,0.17,,,0.17,WUHU216DAVISVP2,2013-06-26 13:50:00,
2013-06-26 08:55:00,73.5,71.0,29.85,SSW,201,5.0,7.0,92,0.17,,,0.17,WUHU216DAVISVP2,2013-06-26 13:55:00,
2013-06-26 09:00:00,73.5,71.3,29.85,South,191,3.0,7.0,93,0.16,,,0.17,WUHU216DAVISVP2,2013-06-26 14:00:00,
2013-06-26 09:05:00,73.7,71.5,29.84,South,172,8.0,13.0,93,0.14,,,0.18,WUHU216DAVISVP2,2013-06-26 14:05:00,
2013-06-26 09:11:00,73.8,71.6,29.84,South,181,7.0,13.0,93,0.13,,,0.18,WUHU216DAVISVP2,2013-06-26 14:11:00,
2013-06-26 09:15:00,73.9,71.7,29.84,SSW,198,6.0,11.0,93,0.12,,,0.18,WUHU216DAVISVP2,2013-06-26 14:15:00,
2013-06-26 09:20:00,74.0,71.5,29.84,SSW,210,8.0,11.0,92,0.12,,,0.18,WUHU216DAVISVP2,2013-06-26 14:20:00,
2013-06-26 09:25:00,74.2,72.0,29.84,SSW,209,8.0,11.0,93,0.11,,,0.18,WUHU216DAVISVP2,2013-06-26 14:25:00,
2013-06-26 09:30:00,74.4,71.9,29.84,SSW,213,6.0,12.0,92,0.11,,,0.18,WUHU216DAVISVP2,2013-06-26 14:30:00,
2013-06-26 09:35:00,74.5,72.0,29.83,South,175,7.0,12.0,92,0.09,,,0.18,WUHU216DAVISVP2,2013-06-26 14:35:00,
2013-06-26 09:40:00,74.6,72.1,29.83,South,191,6.0,10.0,92,0.06,,,0.18,WUHU216DAVISVP2,2013-06-26 14:40:00,
2013-06-26 09:45:00,74.8,72.3,29.83,SSW,203,6.0,8.0,92,0.03,,,0.18,WUHU216DAVISVP2,2013-06-26 14:45:00,
2013-06-26 09:50:00,75.0,72.5,29.83,SSW,210,8.0,9.0,92,0.01,,,0.18,WUHU216DAVISVP2,2013-06-26 14:50:00,
2013-06-26 09:55:00,75.4,72.9,29.82,South,185,4.0,9.0,92,0.01,,,0.18,WUHU216DAVISVP2,2013-06-26 14:55:00,
2013-06-26 10:00:00,75.7,73.2,29.82,South,190,10.0,10.0,92,0.01,,,0.18,WUHU216DAVISVP2,2013-06-26 15:00:00,
2013-06-26 10:05:00,76.2,73.4,29.82,South,186,6.0,11.0,91,0.00,,,0.18,WUHU216DAVISVP2,2013-06-26 15:05:00,
2013-06-26 10:10:00,76.5,73.3,29.82,South,176,9.0,12.0,90,0.00,,,0.18,WUHU216DAVISVP2,2013-06-26 15:10:00,
2013-06-26 10:15:00,76.7,73.2,29.82,SSW,207,6.0,12.0,89,0.00,,,0.18,WUHU216DAVISVP2,2013-06-26 15:15:00,
2013-06-26 10:20:00,76.8,73.3,29.82,SSW,210,7.0,12.0,89,0.00,,,0.18,WUHU216DAVISVP2,2013-06-26 15:20:00,
2013-06-26 10:25:00,77.1,73.6,29.82,SSE,162,7.0,16.0,89,0.00,,,0.18,WUHU216DAVISVP2,2013-06-26 15:25:00,
2013-06-26 10:30:00,77.3,73.8,29.82,SSW,202,9.0,16.0,89,0.00,,,0.18,WUHU216DAVISVP2,2013-06-26 15:30:00,
2013-06-26 10:35:00,78.0,74.5,29.81,South,170,7.0,14.0,89,0.00,,,0.18,WUHU216DAVISVP2,2013-06-26 15:35:00,
2013-06-26 10:40:00,78.3,74.1,29.81,SSW,204,11.0,16.0,87,0.00,,,0.18,WUHU216DAVISVP2,2013-06-26 15:40:00,
2013-06-26 10:45:00,78.5,74.3,29.81,SSW,198,11.0,16.0,87,0.00,,,0.18,WUHU216DAVISVP2,2013-06-26 15:45:00,
2013-06-26 10:50:00,78.9,74.7,29.81,SSW,208,7.0,15.0,87,0.00,,,0.18,WUHU216DAVISVP2,2013-06-26 15:50:00,
2013-06-26 10:55:00,79.3,74.8,29.81,SW,225,11.0,19.0,86,0.00,,,0.18,WUHU216DAVISVP2,2013-06-26 15:55:00,
2013-06-26 11:00:00,79.6,74.7,29.81,South,189,14.0,19.0,85,0.00,,,0.18,WUHU216DAVISVP2,2013-06-26 16:00:00,
2013-06-26 11:05:00,79.6,74.7,29.81,SSW,201,14.0,17.0,85,0.00,,,0.18,WUHU216DAVISVP2,2013-06-26 16:05:00,
2013-06-26 11:10:00,79.8,75.3,29.81,South,187,6.0,18.0,86,0.00,,,0.18,WUHU216DAVISVP2,2013-06-26 16:10:00,
2013-06-26 11:15:00,79.9,75.0,29.81,South,177,11.0,18.0,85,0.00,,,0.18,WUHU216DAVISVP2,2013-06-26 16:15:00,
2013-06-26 11:20:00,80.3,75.1,29.81,SSW,193,7.0,19.0,84,0.00,,,0.18,WUHU216DAVISVP2,2013-06-26 16:20:00,
2013-06-26 11:25:00,80.6,75.4,29.80,SSW,196,11.0,19.0,84,0.00,,,0.18,WUHU216DAVISVP2,2013-06-26 16:25:00,
2013-06-26 11:30:00,80.9,75.7,29.81,SW,214,10.0,17.0,84,0.00,,,0.18,WUHU216DAVISVP2,2013-06-26 16:30:00,
2013-06-26 11:35:00,81.3,76.1,29.80,South,191,11.0,16.0,84,0.00,,,0.18,WUHU216DAVISVP2,2013-06-26 16:35:00,
2013-06-26 11:40:00,81.6,75.7,29.81,SSW,203,19.0,21.0,82,0.00,,,0.18,WUHU216DAVISVP2,2013-06-26 16:40:00,
2013-06-26 11:45:00,82.1,76.2,29.81,SSW,209,10.0,23.0,82,0.00,,,0.18,WUHU216DAVISVP2,2013-06-26 16:45:00,
2013-06-26 11:50:00,82.6,75.8,29.80,SSW,202,13.0,23.0,80,0.00,,,0.18,WUHU216DAVISVP2,2013-06-26 16:50:00,
2013-06-26 11:55:00,82.9,76.1,29.80,SSW,207,13.0,23.0,80,0.00,,,0.18,WUHU216DAVISVP2,2013-06-26 16:55:00,
2013-06-26 12:00:00,83.4,76.3,29.80,South,172,12.0,17.0,79,0.00,,,0.18,WUHU216DAVISVP2,2013-06-26 17:00:00,
2013-06-26 12:05:00,83.7,77.0,29.80,SSE,166,12.0,18.0,80,0.00,,,0.18,WUHU216DAVISVP2,2013-06-26 17:05:00,
2013-06-26 12:10:00,84.0,76.6,29.80,South,191,8.0,20.0,78,0.00,,,0.18,WUHU216DAVISVP2,2013-06-26 17:10:00,
2013-06-26 12:15:00,84.7,77.2,29.80,SSW,196,11.0,20.0,78,0.00,,,0.18,WUHU216DAVISVP2,2013-06-26 17:15:00,
2013-06-26 12:20:00,85.0,77.2,29.80,SSE,161,6.0,21.0,77,0.00,,,0.18,WUHU216DAVISVP2,2013-06-26 17:20:00,
2013-06-26 12:25:00,85.0,77.2,29.80,SSW,212,16.0,21.0,77,0.00,,,0.18,WUHU216DAVISVP2,2013-06-26 17:25:00,
2013-06-26 12:30:00,85.3,76.7,29.80,SW,225,14.0,18.0,75,0.00,,,0.18,WUHU216DAVISVP2,2013-06-26 17:30:00,
2013-06-26 12:35:00,85.2,76.6,29.80,SW,216,18.0,21.0,75,0.00,,,0.18,WUHU216DAVISVP2,2013-06-26 17:35:00,
2013-06-26 12:40:00,85.1,76.5,29.80,SSW,205,14.0,22.0,75,0.00,,,0.18,WUHU216DAVISVP2,2013-06-26 17:40:00,
2013-06-26 12:45:00,85.3,76.7,29.80,SW,219,19.0,22.0,75,0.00,,,0.18,WUHU216DAVISVP2,2013-06-26 17:45:00,
2013-06-26 12:50:00,85.5,76.5,29.80,South,191,11.0,22.0,74,0.00,,,0.18,WUHU216DAVISVP2,2013-06-26 17:50:00,
2013-06-26 12:55:00,85.8,76.8,29.80,SW,229,15.0,22.0,74,0.00,,,0.18,WUHU216DAVISVP2,2013-06-26 17:55:00,
2013-06-26 13:00:00,85.8,76.1,29.80,SW,229,11.0,20.0,73,0.00,,,0.18,WUHU216DAVISVP2,2013-06-26 18:00:00,
2013-06-26 13:05:00,85.5,76.5,29.80,SSW,209,17.0,19.0,74,0.00,,,0.18,WUHU216DAVISVP2,2013-06-26 18:05:00,
2013-06-26 13:10:00,85.3,76.7,29.80,SSW,197,8.0,19.0,75,0.00,,,0.18,WUHU216DAVISVP2,2013-06-26 18:10:00,
2013-06-26 13:15:00,85.4,76.8,29.79,South,186,9.0,17.0,75,0.00,,,0.18,WUHU216DAVISVP2,2013-06-26 18:15:00,
2013-06-26 13:20:00,85.7,77.1,29.79,SW,217,15.0,17.0,75,0.00,,,0.18,WUHU216DAVISVP2,2013-06-26 18:20:00,
2013-06-26 13:25:00,86.6,77.1,29.79,SSW,194,8.0,17.0,73,0.00,,,0.18,WUHU216DAVISVP2,2013-06-26 18:25:00,
2013-06-26 13:30:00,86.9,77.4,29.78,SW,217,9.0,18.0,73,0.00,,,0.18,WUHU216DAVISVP2,2013-06-26 18:30:00,
2013-06-26 13:35:00,87.0,77.1,29.79,South,176,7.0,18.0,72,0.00,,,0.18,WUHU216DAVISVP2,2013-06-26 18:35:00,
2013-06-26 13:40:00,87.2,77.3,29.78,SW,224,14.0,15.0,72,0.00,,,0.18,WUHU216DAVISVP2,2013-06-26 18:40:00,
2013-06-26 13:45:00,87.3,76.7,29.78,SW,225,15.0,19.0,71,0.00,,,0.18,WUHU216DAVISVP2,2013-06-26 18:45:00,
2013-06-26 13:50:00,87.1,77.4,29.78,SW,215,12.0,19.0,73,0.00,,,0.18,WUHU216DAVISVP2,2013-06-26 18:50:00,
2013-06-26 13:55:00,86.8,77.3,29.78,SSW,210,9.0,15.0,73,0.00,,,0.18,WUHU216DAVISVP2,2013-06-26 18:55:00,
2013-06-26 14:00:00,86.3,76.9,29.78,SW,231,9.0,17.0,73,0.00,,,0.18,WUHU216DAVISVP2,2013-06-26 19:00:00,
2013-06-26 14:05:00,86.6,77.9,29.77,SW,222,8.0,17.0,75,0.00,,,0.18,WUHU216DAVISVP2,2013-06-26 19:05:00,
2013-06-26 14:10:00,87.5,77.2,29.77,SW,220,12.0,16.0,71,0.00,,,0.18,WUHU216DAVISVP2,2013-06-26 19:10:00,
2013-06-26 14:15:00,88.1,78.6,29.77,SSW,208,13.0,17.0,73,0.00,,,0.18,WUHU216DAVISVP2,2013-06-26 19:15:00,
2013-06-26 14:20:00,88.2,77.9,29.77,SSW,206,12.0,17.0,71,0.00,,,0.18,WUHU216DAVISVP2,2013-06-26 19:20:00,
2013-06-26 14:25:00,88.0,76.8,29.77,SW,221,13.0,20.0,69,0.00,,,0.18,WUHU216DAVISVP2,2013-06-26 19:25:00,
2013-06-26 14:30:00,87.8,77.1,29.77,SW,226,11.0,20.0,70,0.00,,,0.18,WUHU216DAVISVP2,2013-06-26 19:30:00,
2013-06-26 14:35:00,88.1,77.5,29.76,SW,227,15.0,16.0,71,0.00,,,0.18,WUHU216DAVISVP2,2013-06-26 19:35:00,
2013-06-26 14:40:00,87.9,76.9,29.76,SSW,197,13.0,15.0,70,0.00,,,0.18,WUHU216DAVISVP2,2013-06-26 19:40:00,
2013-06-26 14:45:00,88.1,76.6,29.76,SSW,209,13.0,15.0,69,0.00,,,0.18,WUHU216DAVISVP2,2013-06-26 19:45:00,
2013-06-26 14:50:00,87.7,77.1,29.75,SSW,196,7.0,15.0,71,0.00,,,0.18,WUHU216DAVISVP2,2013-06-26 19:50:00,
2013-06-26 14:55:00,87.1,77.2,29.75,SSW,203,9.0,14.0,72,0.00,,,0.18,WUHU216DAVISVP2,2013-06-26 19:55:00,
2013-06-26 15:00:00,86.7,76.8,29.75,SW,217,10.0,17.0,72,0.00,,,0.18,WUHU216DAVISVP2,2013-06-26 20:00:00,
2013-06-26 15:05:00,86.4,76.5,29.75,SW,214,9.0,17.0,72,0.00,,,0.18,WUHU216DAVISVP2,2013-06-26 20:05:00,
2013-06-26 15:10:00,86.1,76.7,29.74,SW,217,8.0,16.0,73,0.00,,,0.18,WUHU216DAVISVP2,2013-06-26 20:10:00,
2013-06-26 15:16:00,85.5,76.9,29.75,SSW,202,6.0,16.0,75,0.00,,,0.18,WUHU216DAVISVP2,2013-06-26 20:16:00,
2013-06-26 15:20:00,84.2,77.1,29.73,SSE,160,3.0,15.0,79,0.03,,,0.21,WUHU216DAVISVP2,2013-06-26 20:20:00,
2013-06-26 15:21:00,84.2,77.1,29.73,SSE,160,3.0,15.0,79,0.03,,,0.21,WUHU216DAVISVP2,2013-06-26 20:21:00,
2013-06-26 15:26:00,83.5,77.2,29.73,South,184,5.0,13.0,81,0.03,,,0.21,WUHU216DAVISVP2,2013-06-26 20:26:00,
2013-06-26 15:31:00,83.7,77.4,29.73,SSW,204,9.0,14.0,81,0.03,,,0.21,WUHU216DAVISVP2,2013-06-26 20:31:00,
2013-06-26 15:36:00,84.4,77.7,29.73,SSW,205,10.0,15.0,80,0.03,,,0.21,WUHU216DAVISVP2,2013-06-26 20:36:00,
2013-06-26 15:41:00,85.1,78.2,29.73,SW,217,8.0,15.0,80,0.03,,,0.21,WUHU216DAVISVP2,2013-06-26 20:41:00,
2013-06-26 15:46:00,86.0,78.3,29.73,SSW,211,11.0,13.0,78,0.03,,,0.21,WUHU216DAVISVP2,2013-06-26 20:46:00,
2013-06-26 15:51:00,87.2,79.1,29.73,SW,225,13.0,16.0,77,0.03,,,0.21,WUHU216DAVISVP2,2013-06-26 20:51:00,
2013-06-26 15:56:00,87.6,78.1,29.72,SSW,197,12.0,16.0,73,0.03,,,0.21,WUHU216DAVISVP2,2013-06-26 20:56:00,
2013-06-26 16:01:00,87.5,78.8,29.72,SSW,212,9.0,16.0,75,0.03,,,0.21,WUHU216DAVISVP2,2013-06-26 21:01:00,
2013-06-26 16:06:00,87.9,78.8,29.71,SSW,205,9.0,15.0,74,0.03,,,0.21,WUHU216DAVISVP2,2013-06-26 21:06:00,
2013-06-26 16:11:00,87.9,79.2,29.71,South,184,7.0,15.0,75,0.03,,,0.21,WUHU216DAVISVP2,2013-06-26 21:11:00,
2013-06-26 16:16:00,88.6,78.7,29.72,SW,214,8.0,17.0,72,0.03,,,0.21,WUHU216DAVISVP2,2013-06-26 21:16:00,
2013-06-26 16:21:00,89.2,78.8,29.72,SW,223,17.0,17.0,71,0.00,,,0.21,WUHU216DAVISVP2,2013-06-26 21:21:00,
2013-06-26 16:26:00,89.6,78.8,29.72,SW,214,15.0,17.0,70,0.00,,,0.21,WUHU216DAVISVP2,2013-06-26 21:26:00,
2013-06-26 16:31:00,89.8,78.6,29.72,SSW,201,9.0,16.0,69,0.00,,,0.21,WUHU216DAVISVP2,2013-06-26 21:31:00,
2013-06-26 16:36:00,90.3,78.7,29.72,SSW,205,7.0,17.0,69,0.00,,,0.21,WUHU216DAVISVP2,2013-06-26 21:36:00,
2013-06-26 16:41:00,90.8,79.9,29.72,SSW,211,13.0,17.0,70,0.00,,,0.21,WUHU216DAVISVP2,2013-06-26 21:41:00,
2013-06-26 16:46:00,90.9,79.2,29.72,SW,216,6.0,16.0,68,0.00,,,0.21,WUHU216DAVISVP2,2013-06-26 21:46:00,
2013-06-26 16:51:00,91.3,80.0,29.72,SW,224,11.0,16.0,69,0.00,,,0.21,WUHU216DAVISVP2,2013-06-26 21:51:00,
2013-06-26 16:56:00,91.2,79.5,29.72,SSW,202,11.0,16.0,68,0.00,,,0.21,WUHU216DAVISVP2,2013-06-26 21:56:00,
2013-06-26 17:01:00,91.0,79.7,29.72,SSW,206,9.0,16.0,69,0.00,,,0.21,WUHU216DAVISVP2,2013-06-26 22:01:00,
2013-06-26 17:06:00,91.1,79.8,29.71,SSW,208,6.0,15.0,69,0.00,,,0.21,WUHU216DAVISVP2,2013-06-26 22:06:00,
2013-06-26 17:11:00,91.2,79.5,29.72,SSW,202,10.0,15.0,68,0.00,,,0.21,WUHU216DAVISVP2,2013-06-26 22:11:00,
2013-06-26 17:16:00,91.4,79.7,29.71,SSW,205,9.0,14.0,68,0.00,,,0.21,WUHU216DAVISVP2,2013-06-26 22:16:00,
2013-06-26 17:21:00,91.5,79.3,29.71,SW,221,7.0,14.0,67,0.00,,,0.21,WUHU216DAVISVP2,2013-06-26 22:21:00,
2013-06-26 17:26:00,91.8,78.8,29.71,South,181,7.0,16.0,66,0.00,,,0.21,WUHU216DAVISVP2,2013-06-26 22:26:00,
2013-06-26 17:31:00,91.5,77.9,29.71,SW,222,10.0,16.0,64,0.00,,,0.21,WUHU216DAVISVP2,2013-06-26 22:31:00,
2013-06-26 17:36:00,90.9,78.4,29.71,South,183,3.0,15.0,67,0.00,,,0.21,WUHU216DAVISVP2,2013-06-26 22:36:00,
2013-06-26 17:41:00,90.1,78.4,29.71,SE,137,6.0,11.0,68,0.00,,,0.21,WUHU216DAVISVP2,2013-06-26 22:41:00,
2013-06-26 17:46:00,89.4,77.7,29.70,SW,222,5.0,9.0,68,0.00,,,0.21,WUHU216DAVISVP2,2013-06-26 22:46:00,
2013-06-26 17:51:00,89.0,77.8,29.70,East,97,1.0,6.0,69,0.00,,,0.21,WUHU216DAVISVP2,2013-06-26 22:51:00,
2013-06-26 17:56:00,88.7,77.9,29.70,SW,235,2.0,6.0,70,0.00,,,0.21,WUHU216DAVISVP2,2013-06-26 22:56:00,
2013-06-26 18:01:00,88.5,77.7,29.70,SW,233,4.0,5.0,70,0.00,,,0.21,WUHU216DAVISVP2,2013-06-26 23:01:00,
2013-06-26 18:06:00,88.3,78.0,29.71,SSW,197,1.0,5.0,71,0.00,,,0.21,WUHU216DAVISVP2,2013-06-26 23:06:00,
2013-06-26 18:11:00,88.0,78.1,29.71,SSW,202,2.0,6.0,72,0.00,,,0.21,WUHU216DAVISVP2,2013-06-26 23:11:00,
2013-06-26 18:16:00,87.7,77.8,29.70,SW,214,3.0,6.0,72,0.00,,,0.21,WUHU216DAVISVP2,2013-06-26 23:16:00,
2013-06-26 18:21:00,87.4,77.9,29.68,South,186,3.0,5.0,73,0.00,,,0.21,WUHU216DAVISVP2,2013-06-26 23:21:00,
2013-06-26 18:26:00,87.1,78.0,29.69,WSW,245,1.0,5.0,74,0.00,,,0.21,WUHU216DAVISVP2,2013-06-26 23:26:00,
2013-06-26 18:31:00,86.7,77.8,29.70,SW,236,2.0,5.0,75,0.00,,,0.21,WUHU216DAVISVP2,2013-06-26 23:31:00,
2013-06-26 18:36:00,86.3,78.0,29.70,WNW,295,1.0,3.0,76,0.00,,,0.21,WUHU216DAVISVP2,2013-06-26 23:36:00,
2013-06-26 18:41:00,85.8,77.9,29.73,SSW,203,17.0,18.0,77,0.00,,,0.21,WUHU216DAVISVP2,2013-06-26 23:41:00,
2013-06-26 18:46:00,79.7,72.0,29.73,WSW,243,16.0,24.0,77,0.18,,,0.39,WUHU216DAVISVP2,2013-06-26 23:46:00,
2013-06-26 18:51:00,79.1,71.0,29.72,WSW,248,7.0,24.0,76,0.22,,,0.43,WUHU216DAVISVP2,2013-06-26 23:51:00,
2013-06-26 18:56:00,78.0,70.7,29.72,NW,306,6.0,19.0,78,0.22,,,0.43,WUHU216DAVISVP2,2013-06-26 23:56:00,
2013-06-26 19:02:00,78.2,71.6,29.72,SW,231,2.0,7.0,80,0.22,,,0.43,WUHU216DAVISVP2,2013-06-27 00:02:00,
2013-06-26 19:07:00,77.7,71.8,29.72,SSW,207,3.0,7.0,82,0.22,,,0.43,WUHU216DAVISVP2,2013-06-27 00:07:00,
2013-06-26 19:12:00,76.9,72.1,29.72,WSW,242,0.0,4.0,85,0.22,,,0.43,WUHU216DAVISVP2,2013-06-27 00:12:00,
2013-06-26 19:17:00,76.5,71.7,29.71,SSW,210,4.0,4.0,85,0.22,,,0.43,WUHU216DAVISVP2,2013-06-27 00:17:00,
2013-06-26 19:22:00,76.4,71.6,29.70,SW,227,2.0,7.0,85,0.22,,,0.43,WUHU216DAVISVP2,2013-06-27 00:22:00,
2013-06-26 19:27:00,76.1,72.0,29.70,WSW,240,3.0,7.0,87,0.22,,,0.43,WUHU216DAVISVP2,2013-06-27 00:27:00,
2013-06-26 19:32:00,75.9,71.8,29.70,WNW,297,3.0,4.0,87,0.22,,,0.43,WUHU216DAVISVP2,2013-06-27 00:32:00,
2013-06-26 19:37:00,75.9,71.8,29.71,WSW,244,3.0,7.0,87,0.22,,,0.43,WUHU216DAVISVP2,2013-06-27 00:37:00,
2013-06-26 19:42:00,75.9,71.8,29.71,SW,228,3.0,7.0,87,0.17,,,0.43,WUHU216DAVISVP2,2013-06-27 00:42:00,
2013-06-26 19:47:00,75.9,71.8,29.71,SSW,198,2.0,5.0,87,0.01,,,0.43,WUHU216DAVISVP2,2013-06-27 00:47:00,
2013-06-26 19:52:00,75.9,71.4,29.71,SW,214,4.0,5.0,86,0.00,,,0.43,WUHU216DAVISVP2,2013-06-27 00:52:00,
2013-06-26 19:57:00,75.8,71.7,29.72,SSW,196,4.0,6.0,87,0.00,,,0.43,WUHU216DAVISVP2,2013-06-27 00:57:00,
2013-06-26 20:02:00,75.7,71.6,29.72,SSW,207,2.0,6.0,87,0.00,,,0.43,WUHU216DAVISVP2,2013-06-27 01:02:00,
2013-06-26 20:07:00,75.4,71.6,29.73,WSW,248,5.0,5.0,88,0.00,,,0.43,WUHU216DAVISVP2,2013-06-27 01:07:00,
2013-06-26 20:12:00,75.3,71.5,29.73,WSW,241,3.0,5.0,88,0.00,,,0.43,WUHU216DAVISVP2,2013-06-27 01:12:00,
2013-06-26 20:17:00,75.1,71.3,29.73,SSW,195,3.0,6.0,88,0.00,,,0.43,WUHU216DAVISVP2,2013-06-27 01:17:00,
2013-06-26 20:22:00,75.0,71.5,29.73,SW,219,2.0,6.0,89,0.00,,,0.43,WUHU216DAVISVP2,2013-06-27 01:22:00,
2013-06-26 20:27:00,74.9,71.4,29.73,SSW,212,1.0,4.0,89,0.00,,,0.43,WUHU216DAVISVP2,2013-06-27 01:27:00,
2013-06-26 20:32:00,74.8,71.7,29.73,SSW,200,1.0,4.0,90,0.00,,,0.43,WUHU216DAVISVP2,2013-06-27 01:32:00,
2013-06-26 20:37:00,74.7,71.6,29.74,SW,215,1.0,4.0,90,0.00,,,0.43,WUHU216DAVISVP2,2013-06-27 01:37:00,
2013-06-26 20:42:00,74.7,71.6,29.74,SSW,210,3.0,3.0,90,0.00,,,0.43,WUHU216DAVISVP2,2013-06-27 01:42:00,
2013-06-26 20:47:00,74.7,71.9,29.74,SSW,204,2.0,3.0,91,0.00,,,0.43,WUHU216DAVISVP2,2013-06-27 01:47:00,
2013-06-26 20:52:00,74.7,71.9,29.75,SW,216,4.0,4.0,91,0.00,,,0.43,WUHU216DAVISVP2,2013-06-27 01:52:00,
2013-06-26 20:57:00,74.7,71.9,29.75,SSW,203,1.0,4.0,91,0.00,,,0.43,WUHU216DAVISVP2,2013-06-27 01:57:00,
2013-06-26 21:02:00,74.8,72.0,29.75,SSW,212,0.0,4.0,91,0.00,,,0.43,WUHU216DAVISVP2,2013-06-27 02:02:00,
2013-06-26 21:07:00,74.9,72.1,29.75,SW,232,0.0,2.0,91,0.00,,,0.43,WUHU216DAVISVP2,2013-06-27 02:07:00,
2013-06-26 21:12:00,74.9,72.1,29.75,ENE,60,3.0,3.0,91,0.00,,,0.43,WUHU216DAVISVP2,2013-06-27 02:12:00,
2013-06-26 21:17:00,74.8,72.0,29.75,NE,47,0.0,3.0,91,0.00,,,0.43,WUHU216DAVISVP2,2013-06-27 02:17:00,
2013-06-26 21:22:00,74.8,72.0,29.74,North,358,0.0,2.0,91,0.00,,,0.43,WUHU216DAVISVP2,2013-06-27 02:22:00,
2013-06-26 21:27:00,74.7,72.2,29.73,North,1,0.0,0.0,92,0.00,,,0.43,WUHU216DAVISVP2,2013-06-27 02:27:00,
2013-06-26 21:32:00,74.5,72.0,29.74,North,1,0.0,0.0,92,0.00,,,0.43,WUHU216DAVISVP2,2013-06-27 02:32:00,
2013-06-26 21:37:00,74.4,71.9,29.74,North,1,0.0,0.0,92,0.00,,,0.43,WUHU216DAVISVP2,2013-06-27 02:37:00,
2013-06-26 21:42:00,74.4,71.9,29.75,North,1,0.0,0.0,92,0.00,,,0.43,WUHU216DAVISVP2,2013-06-27 02:42:00,
2013-06-26 21:47:00,74.2,72.0,29.75,SW,223,0.0,0.0,93,0.00,,,0.43,WUHU216DAVISVP2,2013-06-27 02:47:00,
2013-06-26 21:52:00,74.2,72.0,29.75,SSW,213,3.0,3.0,93,0.00,,,0.43,WUHU216DAVISVP2,2013-06-27 02:52:00,
2013-06-26 21:57:00,74.2,72.0,29.75,SSW,211,2.0,3.0,93,0.00,,,0.43,WUHU216DAVISVP2,2013-06-27 02:57:00,
2013-06-26 22:02:00,74.3,72.1,29.75,WSW,242,0.0,3.0,93,0.00,,,0.43,WUHU216DAVISVP2,2013-06-27 03:02:00,
2013-06-26 22:07:00,74.3,72.1,29.75,WSW,246,0.0,2.0,93,0.00,,,0.43,WUHU216DAVISVP2,2013-06-27 03:07:00,
2013-06-26 22:12:00,74.3,72.4,29.75,WSW,249,0.0,1.0,94,0.00,,,0.43,WUHU216DAVISVP2,2013-06-27 03:12:00,
2013-06-26 22:17:00,74.4,72.5,29.76,WSW,249,0.0,0.0,94,0.00,,,0.43,WUHU216DAVISVP2,2013-06-27 03:17:00,
2013-06-26 22:22:00,74.5,72.6,29.77,WSW,249,0.0,0.0,94,0.00,,,0.43,WUHU216DAVISVP2,2013-06-27 03:22:00,
2013-06-26 22:27:00,74.4,72.2,29.77,WSW,249,0.0,0.0,93,0.00,,,0.43,WUHU216DAVISVP2,2013-06-27 03:27:00,
2013-06-26 22:32:00,74.5,72.3,29.77,WSW,249,0.0,0.0,93,0.00,,,0.43,WUHU216DAVISVP2,2013-06-27 03:32:00,
2013-06-26 22:37:00,74.6,72.1,29.77,WSW,239,0.0,0.0,92,0.00,,,0.43,WUHU216DAVISVP2,2013-06-27 03:37:00,
2013-06-26 22:42:00,74.6,72.4,29.77,WSW,239,0.0,0.0,93,0.00,,,0.43,WUHU216DAVISVP2,2013-06-27 03:42:00,
2013-06-26 22:47:00,74.6,72.4,29.78,WSW,239,0.0,0.0,93,0.00,,,0.43,WUHU216DAVISVP2,2013-06-27 03:47:00,
2013-06-26 22:52:00,74.5,72.3,29.78,SW,234,0.0,0.0,93,0.00,,,0.43,WUHU216DAVISVP2,2013-06-27 03:52:00,
2013-06-26 22:57:00,74.4,72.2,29.77,SW,235,0.0,0.0,93,0.00,,,0.43,WUHU216DAVISVP2,2013-06-27 03:57:00,
2013-06-26 23:01:00,74.4,72.2,29.77,SW,236,0.0,0.0,93,0.00,,,0.43,WUHU216DAVISVP2,2013-06-27 04:01:00,
2013-06-26 23:06:00,74.5,72.3,29.78,WSW,249,0.0,1.0,93,0.00,,,0.43,WUHU216DAVISVP2,2013-06-27 04:06:00,
2013-06-26 23:11:00,74.5,72.3,29.77,West,280,1.0,1.0,93,0.00,,,0.43,WUHU216DAVISVP2,2013-06-27 04:11:00,
2013-06-26 23:16:00,74.8,72.3,29.77,West,280,1.0,1.0,92,0.00,,,0.43,WUHU216DAVISVP2,2013-06-27 04:16:00,
2013-06-26 23:21:00,74.9,72.4,29.77,WNW,289,3.0,3.0,92,0.00,,,0.43,WUHU216DAVISVP2,2013-06-27 04:21:00,
2013-06-26 23:26:00,75.1,72.6,29.78,WNW,286,1.0,3.0,92,0.00,,,0.43,WUHU216DAVISVP2,2013-06-27 04:26:00,
2013-06-26 23:31:00,75.1,72.3,29.78,West,278,0.0,2.0,91,0.00,,,0.43,WUHU216DAVISVP2,2013-06-27 04:31:00,
2013-06-26 23:36:00,75.1,72.3,29.78,WSW,240,0.0,2.0,91,0.00,,,0.43,WUHU216DAVISVP2,2013-06-27 04:36:00,
2013-06-26 23:41:00,75.0,72.5,29.78,WSW,239,1.0,2.0,92,0.00,,,0.43,WUHU216DAVISVP2,2013-06-27 04:41:00,
2013-06-26 23:46:00,74.9,72.4,29.77,SW,234,0.0,2.0,92,0.00,,,0.43,WUHU216DAVISVP2,2013-06-27 04:46:00,
2013-06-26 23:51:00,74.7,72.2,29.77,West,264,0.0,1.0,92,0.00,,,0.43,WUHU216DAVISVP2,2013-06-27 04:51:00,
2013-06-26 23:56:00,74.7,72.2,29.77,WNW,293,1.0,1.0,92,0.00,,,0.43,WUHU216DAVISVP2,2013-06-27 04:56:00,